Location: Be Zolon
(6.6167°N, 10.9000°W)
Time: 14:56:00
(UTC+00:00)

Daily predictions for brighter satellites

Satellite Brightness Start Highest point End
(mag) Time Altitude Azimuth Time Altitude Azimuth Time Altitude Azimuth
Aurora 2 Rocket 4.3 19:10:52 10° NW 19:14:52 23° NNE 19:18:03 10° ENE
GPS 2-14 Rocket1 3.9 19:13:34 10° NW 19:16:56 30° NNE 19:20:15 10° E
Cosmos 2285 Rocket 4.3 19:13:03 10° N 19:19:11 48° ENE 19:25:16 10° SSE
Cosmos 968 Rocket 3.6 19:17:23 10° S 19:22:27 54° ESE 19:27:27 10° NNE
Cosmos 1447 Rocket 4.5 19:16:40 10° N 19:22:54 83° E 19:29:04 10° S
IRIDIUM 114 4.3 19:18:27 10° N 19:23:36 63° E 19:28:45 10° S
Cosmos 1151 Rocket 4.4 19:23:21 10° SE 19:26:21 19° E 19:29:20 10° NE
Okean 3 Rocket 3.6 19:22:29 10° N 19:27:00 90° ESE 19:31:32 10° S
IRIDIUM 103 4.3 19:27:32 10° N 19:32:45 82° E 19:37:58 10° S
Cosmos 1766 Rocket 4.4 19:29:50 10° NNW 19:34:03 52° W 19:38:15 10° S
BLOCK DM-SL R/B 1.7 19:33:58 10° WSW 19:35:50 32° S 19:37:33 16° ESE
ATLAS 5 CENTAUR R/B 2.8 19:30:17 10° NNW 19:37:03 80° ENE 19:44:31 10° SSE
CZ-4 R/B 2.3 19:36:37 13° SE 19:39:28 28° ENE 19:42:52 10° NNE
Ariane 3 Deb 3.9 19:19:58 10° W 19:40:13 85° S 19:43:58 14° E
Cosmos 1356 Rocket 3.2 19:39:34 10° N 19:43:30 72° E 19:47:28 10° S
Cosmos 1763 Rocket 3.6 19:38:43 10° N 19:43:56 62° ENE 19:49:10 10° SSE
Cosmos 2016 Rocket 4.1 19:39:33 10° S 19:45:51 82° W 19:52:13 10° N
YAOGAN 1 2.7 19:43:31 10° SSE 19:47:44 53° ENE 19:51:55 10° N
Cosmos 1743 Rocket 4.2 19:45:32 10° NNE 19:49:32 34° E 19:51:58 19° SE
Okean O Rocket 1.5 19:45:13 10° SSE 19:49:34 72° ENE 19:53:51 10° N
Cosmos 1602 3.7 19:45:54 10° N 19:49:36 55° E 19:52:52 13° SSE
OBJECT-B 2.9 19:52:00 11° NE 19:52:00 11° NE 19:52:20 10° NE
Cosmos 2233 Rocket 4.0 19:47:18 10° S 19:53:29 60° E 19:59:40 10° NNE
Cosmos 2346 Rocket 4.4 19:51:51 10° N 19:57:56 74° E 20:04:06 10° S
CZ-4C R/B 4.1 19:55:39 10° N 19:58:32 39° WNW 20:01:27 10° SSW
GPS 2-17 Rocket1 3.7 19:56:07 10° WNW 20:00:47 48° NNE 20:03:19 24° E
Meteor 2-6 Rocket 4.0 19:56:13 10° S 20:01:35 71° E 20:06:56 10° NNE
ATLAS 5 CENTAUR R/B 3.9 19:38:13 10° WNW 20:01:45 40° NNW 20:07:46 10° ENE
ATLAS 2A CENTAUR R/B 3.2 19:59:03 10° SW 20:01:44 21° S 20:01:44 21° S
Meteor 1-20 Rocket 4.2 19:57:12 10° N 20:02:41 82° W 20:08:09 10° S
Aureole 1 Rocket 2.9 20:01:03 10° S 20:05:40 53° ESE 20:09:15 10° NNE
Sich 1 4.0 20:05:11 10° NNE 20:08:31 28° ENE 20:08:31 28° ENE
Feng Yun 1-1 Rocket 4.2 20:04:54 14° SSE 20:09:52 75° ENE 20:15:21 10° N
Cosmos 1666 2.9 20:11:06 10° N 20:14:30 46° ENE 20:14:30 46° ENE
ARIANE 5 R/B 3.0 20:09:36 10° W 20:14:46 89° NNE 20:15:50 44° E
Okean-O 3.5 20:17:32 31° ENE 20:17:32 31° ENE 20:21:02 10° NNE
Cosmos 1980 Rocket 2.2 20:11:44 10° S 20:17:11 55° ESE 20:22:39 10° NNE
GPS 2-15 Rocket1 3.4 20:12:42 10° SW 20:17:14 44° SSE 20:17:41 43° SE
Cosmos 1500 3.5 20:15:21 10° NNW 20:19:04 62° W 20:21:04 25° SSW
Tiangong 3.9 20:18:28 10° WSW 20:19:22 11° SW 20:20:15 10° SSW
Cosmos 2344 4.2 20:15:15 10° SSW 20:24:44 64° WNW 20:32:14 10° NNE
Cosmos 2369 3.6 20:21:12 10° SSW 20:26:50 87° ESE 20:32:28 10° NNE
ATLAS 2AS CENTAUR R/B 2.9 20:21:08 10° SSW 20:28:49 88° ESE 20:36:39 10° NNE
COSMOS 2487 3.6 20:28:42 10° NNW 20:30:31 32° NNW 20:30:31 32° NNW
Meteor 2-13 Rocket 4.4 20:28:53 10° N 20:35:02 87° W 20:38:32 28° S
Sea Lan Dem Rocket 2.8 20:31:43 10° WSW 20:35:07 46° S 20:35:07 46° S
Cosmos 540 Rocket 3.8 20:30:15 10° NNW 20:35:19 63° WSW 20:37:34 32° S
Cosmos 1697 Rocket 4.3 20:30:50 10° SW 20:35:56 35° WNW 20:41:03 10° N
CSL-04 Debris 4.0 20:41:54 67° SE 20:42:32 76° ENE 20:47:56 10° N
Cosmos 1328 Rocket 4.0 20:42:16 41° SW 20:43:27 57° W 20:47:39 10° N
Centaur D-1AR AC-48 2.4 20:33:32 10° WSW 20:44:44 76° NNW 20:45:50 52° NE
H-2A R/B 3.5 20:50:19 10° WNW 20:51:27 17° WNW 20:51:27 17° WNW
Cosmos 841 Rocket 3.8 20:50:59 10° NNW 20:56:02 59° WSW 20:56:32 56° SW
Cosmos 1072 Rocket 4.4 20:57:23 69° NE 20:57:23 69° NE 21:02:51 10° N
H-2A R/B 3.3 20:53:26 10° N 20:57:15 37° WNW 20:58:15 32° WSW
NOSS 3-2 (A) 4.2 20:51:53 10° NNW 21:00:26 63° ENE 21:01:37 59° E
Cosmos 2297 Rocket 3.8 21:01:20 10° N 21:03:47 24° NNE 21:03:47 24° NNE
USA 234 3.4 21:24:32 69° W 21:24:32 69° W 21:30:29 10° NW
CENTAUR R/B 3.1 21:16:22 10° NNW 21:25:27 83° ENE 21:25:30 83° ENE
